Weather History for KALW - May, 2013

Change the Weather History Date:

Tuesday, May 7, 2013

  Actual Average Record
Temperature  
Mean Temperature 72 °F -  
Max Temperature 88 °F 69 °F 91 °F (1987)
Min Temperature 57 °F 46 °F 32 °F (2002)
Cooling Degree Days 7    
Growing Degree Days 22 (Base 50)    
Moisture  
Dew Point 43 °F    
Average Humidity 37    
Maximum Humidity 51    
Minimum Humidity 18    
Precipitation  
Precipitation 0.00 in - - ()
Sea Level Pressure  
Sea Level Pressure 29.80 in    
Wind  
Wind Speed 5 mph (ESE)    
Max Wind Speed 8 mph    
Max Gust Speed -    
Visibility 10 miles    
Events      
Averages and records for this station are not official NWS values.
T = Trace of Precipitation, MM = Missing Value Source: NWS Daily Summary

Daily Weather History Graph

Daily Weather History Graph

Search for Another Location

Airport or City:

Trip Planner

Search our weather history database for the weather conditions in past years. The results will help you decide how hot, cold, wet, or windy it might be!

Date:

Astronomy

May. 07, 2013 Rise Set
Actual Time 5:30 AM PDT 8:09 PM PDT
Civil Twilight 4:56 AM PDT 8:43 PM PDT
Nautical Twilight 4:13 AM PDT 9:26 PM PDT
Astronomical Twilight 3:23 AM PDT 10:17 PM PDT
Moon 4:14 AM PDT (5/7) 6:08 PM PDT (5/7)
Length of Visible Light 15h 47m
Length of Day
14h 39m
Waning Crescent, 5% of the Moon is Illuminated
May 7
Waning Crescent
May 9
New
May 17
First Quarter
May 24
Full
May 31
Last Quarter

Hourly Weather History & Observations

Time (PDT) Temp. Dew Point Humidity Pressure Visibility Wind Dir Wind Speed Gust Speed Precip Events Conditions
1:53 AM 62.1 °F 39.9 °F 44% 29.75 in 10.0 mi ESE 4.6 mph - N/A   Clear
2:53 AM 61.0 °F 39.9 °F 46% 29.76 in 10.0 mi Calm Calm - N/A   Clear
3:53 AM 57.9 °F 39.9 °F 51% 29.77 in 10.0 mi ESE 5.8 mph - N/A   Clear
4:53 AM 57.9 °F 39.0 °F 49% 29.78 in 10.0 mi ESE 6.9 mph - N/A   Clear
5:53 AM 60.1 °F 39.0 °F 46% 29.79 in 10.0 mi ESE 5.8 mph - N/A   Clear
6:53 AM 62.1 °F 43.0 °F 50% 29.80 in 10.0 mi East 4.6 mph - N/A   Clear
7:53 AM 68.0 °F 39.9 °F 36% 29.81 in 10.0 mi SSW 5.8 mph - N/A   Clear
8:53 AM 70.0 °F 42.1 °F 36% 29.83 in 10.0 mi West 8.1 mph - N/A   Clear
9:53 AM 71.1 °F 44.1 °F 38% 29.84 in 10.0 mi WSW 6.9 mph - N/A   Clear
10:53 AM 75.0 °F 46.0 °F 36% 29.84 in 10.0 mi WSW 6.9 mph - N/A   Clear
11:53 AM 77.0 °F 45.0 °F 32% 29.83 in 10.0 mi West 8.1 mph - N/A   Clear
12:53 PM 79.0 °F 43.0 °F 28% 29.83 in 10.0 mi Variable 3.5 mph - N/A   Clear
1:53 PM 81.0 °F 43.0 °F 26% 29.81 in 10.0 mi SSW 5.8 mph - N/A   Clear
3:53 PM 84.9 °F 43.0 °F 23% 29.77 in 10.0 mi Variable 4.6 mph - N/A   Clear
4:53 PM 87.1 °F 42.1 °F 21% 29.76 in 10.0 mi North 3.5 mph - N/A   Clear
5:53 PM 87.1 °F 37.9 °F 18% 29.76 in 10.0 mi North 4.6 mph - N/A   Clear
6:53 PM 86.0 °F 42.1 °F 21% 29.76 in 10.0 mi NNE 4.6 mph - N/A   Clear
7:53 PM 75.9 °F 51.1 °F 42% 29.77 in 10.0 mi Calm Calm - N/A   Clear
8:53 PM 70.0 °F 48.0 °F 46% 29.78 in 10.0 mi ESE 5.8 mph - N/A   Clear
9:53 PM 66.0 °F 45.0 °F 47% 29.81 in 10.0 mi East 6.9 mph - N/A   Clear
10:53 PM 66.0 °F 43.0 °F 43% 29.82 in 10.0 mi East 8.1 mph - N/A   Clear
11:53 PM 66.0 °F 43.0 °F 43% 29.83 in 10.0 mi ESE 6.9 mph - N/A   Clear